Terminal Aerodrome Forecast
Issued by NWS Milwaukee/Sullivan, WI

Home | Current Version | Previous Version | Text Only | Print | Product List | Glossary On
Versions: 1 2 3 4 5 6 7 8 9 10 11 12 13 14 15 16 17 18 19 20 21 22 23 24 25 26 27 28 29 30 31 32 33 34 35 36 37 38 39 40 41 42 43 44 45 46 47 48 49 50
000
FTUS43 KMKX 201723
TAFMSN
TAF
KMSN 201723Z 2018/2118 16005KT 6SM -SN OVC010
     FM202200 17004KT P6SM OVC012
     FM210700 VRB03KT P6SM OVC015
     FM210900 16005KT P6SM OVC015
      TEMPO 2109/2113 -FZDZ
     FM211300 16006KT P6SM -FZDZ OVC010
     FM211500 17010KT P6SM -DZ OVC010=

USA.gov is the U.S. government's official web portal to all federal, state and local government web resources and services.